Location: ??????
(38.3184°N, 23.6932°E)
Time: 01:41:29
(UTC+00:00)

ARGOS - Pass Details

Date: 16 October 2021
Orbit: 820 x 835 km, 98.4° (Epoch: 04 December)

Event Time Altitude Azimuth Distance (km) Brightness Sun altitude
Rises 17:25:32 0° 181° (S) 3,345 6.3 -20.3°
Reaches altitude 10° 17:27:57 10° 188° (S) 2,418 5.6 -20.8°
Maximum altitude 17:33:05 47° 261° (W) 1,092 4.2 -21.8°
Drops below altitude 10° 17:38:18 10° 335° (NNW) 2,443 6.0 -22.8°
Sets 17:40:46 0° 341° (NNW) 3,383 6.7 -23.3°
